Tracking 17558 objects as of 10-February-2016
HD Live streaming from Space Station
objects crossing your sky now

TEAMSAT

Track TEAMSAT now!
10-day predictions
TEAMSAT is classified as:


NORAD ID: 25025
Int'l Code: 1997-066C
Perigee: 604.7 km
Apogee: 26,566.2 km
Inclination: 7.9 °
Period: 467.6 minutes
Semi major axis: 19956 km
RCS: 0.5073 m2 (medium)
Launch date: October 30, 1997
Source: European Space Agency (ESA)
Launch site: FRENCH GUIANA (FRGUI)
Your satellite tracking list
Your tracking list is empty





NASA's NSSDC Master Catalog

Two Line Element Set (TLE):
1 25025U 97066C   16040.11782626 -.00000060  00000-0 -35543-3 0  9997
2 25025   7.9210 315.7378 6504554 267.4969 103.9266  3.0794878420569
Source of the keplerian elements: AFSPC

N2YO: 1035